Weather History for LFOK - June, 2013

Change the Weather History Date:

Tuesday, June 25, 2013

  Actual Average (LFQB) Record (LFQB)
Temperature  
Mean Temperature 52 °F -  
Max Temperature 64 °F 74 °F 87 °F (2001)
Min Temperature 41 °F 53 °F 44 °F (2013)
Degree Days  
Heating Degree Days 12    
Growing Degree Days 2 (Base 50)    
Moisture  
Dew Point 48 °F    
Average Humidity 81    
Maximum Humidity 100    
Minimum Humidity 56    
Precipitation  
Precipitation 0.00 in - - ()
Sea Level Pressure  
Sea Level Pressure 30.34 in    
Wind  
Wind Speed 5 mph ()    
Max Wind Speed 12 mph    
Max Gust Speed -    
Visibility 6.2 miles    
Events      
Averages and records for this station are not official NWS values.
T = Trace of Precipitation, MM = Missing Value Source: Averaged Metar Reports

Daily Weather History Graph

Daily Weather History Graph

Search for Another Location

Airport or City:

Trip Planner

Search our weather history database for the weather conditions in past years. The results will help you decide how hot, cold, wet, or windy it might be!

Date:

Astronomy

Jun. 25, 2013 Rise Set
Actual Time 5:41 AM CEST 9:50 PM CEST
Civil Twilight 4:58 AM CEST 10:32 PM CEST
Nautical Twilight 3:58 AM CEST 11:33 PM CEST
Astronomical Twilight 2:18 AM CEST 1:13 AM CEST
Moon 11:08 PM CEST (6/25) 8:15 AM CEST (6/25)
Length of Visible Light 17h 34m
Length of Day
16h 09m
Waning Gibbous, 94% of the Moon is Illuminated
Jun 25
Waning Gibbous
Jun 30
Last Quarter
Jul 8
New
Jul 16
First Quarter
Jul 22
Full

Hourly Weather History & Observations

Time (CEST) Temp. Windchill Dew Point Humidity Pressure Visibility Wind Dir Wind Speed Gust Speed Precip Events Conditions
12:00 AM 48.2 °F - 46.4 °F 93% 30.30 in 6.2 mi WNW 5.8 mph - N/A   Unknown
12:30 AM 48.2 °F - 46.4 °F 93% 30.30 in 6.2 mi WNW 5.8 mph - N/A   Unknown
1:00 AM 46.4 °F 44.3 °F 44.6 °F 93% 30.30 in 6.2 mi WNW 4.6 mph - N/A   Unknown
1:30 AM 46.4 °F 43.5 °F 44.6 °F 93% 30.30 in 6.2 mi WNW 5.8 mph - N/A   Unknown
2:00 AM 44.6 °F 42.2 °F 44.6 °F 100% 30.30 in 6.2 mi West 4.6 mph - N/A   Unknown
2:30 AM 44.6 °F 43.1 °F 42.8 °F 93% 30.30 in 6.2 mi West 3.5 mph - N/A   Unknown
3:00 AM 44.6 °F 42.2 °F 44.6 °F 100% 30.30 in 6.2 mi WNW 4.6 mph - N/A   Unknown
3:30 AM 42.8 °F 40.1 °F 41.0 °F 93% 30.30 in 6.2 mi West 4.6 mph - N/A   Unknown
4:00 AM 44.6 °F 41.4 °F 42.8 °F 93% 30.30 in 6.2 mi WNW 5.8 mph - N/A   Unknown
4:30 AM 44.6 °F 41.4 °F 42.8 °F 93% 30.30 in 6.2 mi WNW 5.8 mph - N/A   Unknown
5:00 AM 42.8 °F 38.6 °F 42.8 °F 100% 30.30 in 6.2 mi WNW 6.9 mph - N/A   Unknown
5:30 AM 42.8 °F 40.1 °F 42.8 °F 100% 30.30 in 6.2 mi West 4.6 mph - N/A   Unknown
6:00 AM 41.0 °F 39.0 °F 41.0 °F 100% 30.30 in 6.2 mi West 3.5 mph - N/A   Unknown
6:30 AM 44.6 °F 41.4 °F 42.8 °F 93% 30.33 in 6.2 mi West 5.8 mph - N/A   Unknown
7:00 AM 44.6 °F 40.2 °F 44.6 °F 100% 30.33 in 6.2 mi WNW 8.1 mph - N/A   Unknown
7:30 AM 46.4 °F 45.2 °F 46.4 °F 100% 30.33 in 6.2 mi Variable 3.5 mph - N/A   Unknown
8:00 AM 48.2 °F - 46.4 °F 93% 30.33 in 6.2 mi WNW 5.8 mph - N/A   Overcast
8:30 AM 50.0 °F - 48.2 °F 94% 30.33 in 6.2 mi West 3.5 mph - N/A   Overcast
9:00 AM 51.8 °F - 50.0 °F 94% 30.33 in 6.2 mi NW 5.8 mph - N/A   Mostly Cloudy
9:30 AM 53.6 °F - 51.8 °F 94% 30.33 in 6.2 mi NNW 4.6 mph - N/A   Overcast
10:00 AM 55.4 °F - 50.0 °F 82% 30.33 in 6.2 mi North 5.8 mph - N/A   Mostly Cloudy
10:30 AM 57.2 °F - 50.0 °F 77% 30.33 in 6.2 mi North 4.6 mph - N/A   Mostly Cloudy
11:00 AM 59.0 °F - 50.0 °F 72% 30.33 in 6.2 mi NNE 4.6 mph - N/A   Mostly Cloudy
11:30 AM 57.2 °F - 50.0 °F 77% 30.33 in 6.2 mi North 4.6 mph - N/A   Mostly Cloudy
12:00 PM 57.2 °F - 50.0 °F 77% 30.36 in 6.2 mi North 4.6 mph - N/A   Overcast
12:30 PM 59.0 °F - 50.0 °F 72% 30.33 in 6.2 mi NNW 5.8 mph - N/A   Mostly Cloudy
1:00 PM 57.2 °F - 50.0 °F 77% 30.36 in 6.2 mi NNW 6.9 mph - N/A   Overcast
1:30 PM 59.0 °F - 50.0 °F 72% 30.36 in 6.2 mi NNW 4.6 mph - N/A   Overcast
2:00 PM 60.8 °F - 50.0 °F 68% 30.36 in 6.2 mi North 6.9 mph - N/A   Overcast
2:30 PM 62.6 °F - 50.0 °F 63% 30.36 in 6.2 mi NNW 8.1 mph - N/A   Mostly Cloudy
3:00 PM 62.6 °F - 50.0 °F 63% 30.36 in 6.2 mi NW 9.2 mph - N/A   Mostly Cloudy
3:30 PM 62.6 °F - 48.2 °F 59% 30.36 in 6.2 mi North 9.2 mph - N/A   Overcast
4:00 PM 64.4 °F - 50.0 °F 59% 30.36 in 6.2 mi North 5.8 mph - N/A   Overcast
4:30 PM 64.4 °F - 48.2 °F 56% 30.36 in 6.2 mi North 5.8 mph - N/A   Overcast
5:00 PM 60.8 °F - 50.0 °F 68% 30.36 in 6.2 mi North 11.5 mph - N/A   Mostly Cloudy
5:30 PM 60.8 °F - 51.8 °F 72% 30.36 in 6.2 mi North 6.9 mph - N/A   Unknown
6:00 PM 60.8 °F - 46.4 °F 59% 30.36 in 6.2 mi NE 9.2 mph - N/A   Overcast
6:30 PM 59.0 °F - 50.0 °F 72% 30.33 in 6.2 mi NE 5.8 mph - N/A   Mostly Cloudy
7:00 PM 59.0 °F - 48.2 °F 67% 30.33 in 6.2 mi ENE 4.6 mph - N/A   Unknown
7:30 PM 60.8 °F - 46.4 °F 59% 30.33 in 6.2 mi ENE 3.5 mph - N/A   Unknown
8:00 PM 60.8 °F - 50.0 °F 68% 30.36 in 6.2 mi NNE 3.5 mph - N/A   Overcast
8:30 PM 59.0 °F - 50.0 °F 72% 30.36 in 6.2 mi North 2.3 mph - N/A   Overcast
9:00 PM 59.0 °F - 50.0 °F 72% 30.36 in 6.2 mi NW 2.3 mph - N/A   Overcast
9:30 PM 57.2 °F - 51.8 °F 82% 30.36 in 6.2 mi NW 2.3 mph - N/A   Overcast
10:00 PM 57.2 °F - 50.0 °F 77% 30.36 in 6.2 mi NNW 3.5 mph - N/A   Overcast
10:30 PM 55.4 °F - 51.8 °F 88% 30.39 in 6.2 mi WNW 4.6 mph - N/A   Overcast
11:00 PM 55.4 °F - 51.8 °F 88% 30.39 in 6.2 mi NNW 5.8 mph - N/A   Unknown
11:30 PM 55.4 °F - 50.0 °F 82% 30.39 in 6.2 mi North 6.9 mph - N/A   Unknown